User: anonymous
Location: Caltech
(34.1382°N, 118.1253°W)
Time: 14:05:08
(UTC-07:00)
Language:

Iridium 94 - Orbit

View from above orbital plane
View from above orbital plane
View from above satellite
View from above satellite

Ground track
Ground track

The orbit data is extracted from the following two-line orbital elements,

1 27374U 02005C   14244.33519112  .00000257  00000-0  84737-4 0  6253
2 27374 086.3988 322.0288 0004477 134.6377 294.0773 14.34219574669772
Epoch (UTC): 01 September 2014 08:02:40
Eccentricity: 0.0004477
inclination: 86.3988°
perigee height: 774 km
apogee height: 781 km
right ascension of ascending node: 322.0288°
argument of perigee: 134.6377°
revolutions per day: 14.34219574
mean anomaly at epoch: 294.0773°
orbit number at epoch: 66977

The dashed part of the orbit path shows where the satellite is in the earth's shadow,  

DLR